GFSNIL_sfc_thetae_114.txt.gz
Theta_e
292 293 293 293 294 295 298 300 302 304 307 309 311 314 320 326 324 321 323 323 322 321
291 291 292 292 294 295 296 298 299 300 303 306 313 313 317 323 322 323 324 323 323 324
290 291 291 292 292 293 294 295 296 298 301 305 312 314 315 318 323 322 322 323 323 323
288 289 290 290 290 290 292 293 295 296 299 304 307 318 315 316 321 322 322 320 319 322
288 288 288 288 288 289 289 291 292 294 296 299 300 305 321 317 320 320 320 320 318 318
287 287 286 286 287 287 287 288 289 291 292 293 294 296 302 318 320 320 320 321 319 317
286 287 286 286 286 285 286 285 286 287 289 290 291 292 293 299 310 318 322 322 322 320
286 287 287 286 286 285 285 285 285 285 286 287 289 289 289 297 304 308 317 318 315 316
285 285 286 286 285 284 284 284 284 283 284 284 286 288 288 291 291 290 297 305 301 299
283 283 283 284 284 283 282 281 282 282 283 283 284 286 288 287 286 286 285 286 290 294
282 281 282 282 282 281 282 281 280 281 282 283 284 285 285 286 286 284 283 284 285 286
280 279 279 279 279 280 280 280 279 280 280 281 282 286 285 283 283 283 282 283 284 284
281 279 277 277 278 278 278 277 278 278 279 281 281 285 286 284 281 280 281 282 282 284
280 279 278 277 277 277 277 277 276 277 278 279 281 282 286 285 282 281 280 280 281 282

GFSNIL_sfc_thetae_117.txt.gz
Theta_e
291 291 292 292 292 293 294 295 297 298 299 300 303 305 308 311 312 317 323 321 318 318
290 290 290 291 292 291 292 293 295 295 297 298 300 303 307 312 312 315 322 322 320 319
289 290 290 290 289 289 290 291 292 293 294 296 298 302 304 307 314 314 321 322 321 321
288 289 288 288 287 287 288 289 289 290 292 293 294 296 297 299 314 313 316 321 320 319
288 288 287 286 286 287 286 287 288 289 290 290 291 293 293 294 299 314 315 319 318 318
287 287 286 286 286 286 286 286 286 287 287 288 289 290 291 292 295 301 316 318 319 319
285 285 286 286 285 284 284 284 285 286 286 287 288 288 289 290 296 302 310 317 319 320
284 284 285 284 284 283 283 284 284 284 285 286 286 286 286 288 290 292 294 294 300 309
283 282 282 283 282 282 281 281 282 282 283 284 286 286 286 287 287 287 288 288 289 292
280 279 279 280 280 279 280 280 279 279 280 282 284 286 286 285 285 284 285 285 287 287
279 278 277 277 277 277 277 277 277 278 279 280 283 286 286 284 283 283 283 283 284 285
279 277 276 274 274 275 276 276 276 278 278 279 280 285 285 284 282 281 281 282 283 283
280 277 275 274 274 274 274 275 277 277 278 280 279 283 285 283 281 280 280 281 281 284
279 278 277 276 276 275 275 275 275 276 278 278 279 279 282 283 280 279 279 279 279 281

GFSNIL_sfc_thetae_120.txt.gz
Theta_e
290 290 290 290 290 290 290 291 293 294 295 297 298 300 302 304 306 310 312 312 315 322
289 289 288 289 289 289 289 290 291 292 292 294 296 297 299 301 303 306 311 313 314 320
289 289 289 288 287 287 288 289 289 290 291 292 293 294 295 296 298 301 305 314 315 318
288 288 288 288 287 287 288 288 288 289 289 290 290 291 291 292 294 295 299 312 314 318
287 287 286 285 285 285 285 287 287 288 288 288 289 289 289 290 291 293 296 301 312 315
285 285 285 285 284 284 284 285 286 286 287 287 288 287 288 289 291 292 295 298 304 315
283 283 284 284 283 283 283 283 283 284 286 287 287 287 287 288 288 289 290 292 293 295
282 282 282 282 281 282 281 281 282 282 284 285 286 286 285 286 286 285 286 287 288 291
280 280 279 279 279 279 279 279 280 281 281 282 285 286 286 285 284 284 283 283 284 287
279 278 277 277 277 276 276 277 279 279 280 280 283 285 285 285 283 282 282 282 283 284
278 277 276 276 275 275 275 275 277 278 278 278 281 284 284 283 282 281 281 281 282 282
278 276 275 273 273 274 274 274 275 278 277 277 278 282 283 280 279 279 279 280 281 282
278 276 274 274 274 274 269 273 275 275 277 279 277 281 281 280 278 276 278 279 279 282
278 277 276 274 274 274 272 274 273 273 274 275 277 277 280 280 276 275 276 276 276 278

GFSNIL_sfc_thetae_123.txt.gz
Theta_e
291 290 290 290 289 290 290 291 292 292 293 294 295 297 298 300 302 305 307 309 311 313
290 290 289 289 289 289 290 290 291 291 291 292 293 294 295 296 298 299 300 304 306 312
289 289 289 288 287 288 288 289 289 290 290 291 291 292 292 293 295 296 298 300 302 307
287 288 288 286 286 287 287 287 287 288 289 289 290 290 290 291 294 294 296 299 301 304
287 287 286 286 286 286 285 286 286 287 288 288 289 289 289 290 291 291 292 294 295 298
285 285 285 285 285 285 285 285 285 285 286 287 287 288 288 288 288 288 289 289 291 292
283 283 284 285 284 284 284 284 283 284 285 286 286 287 287 287 287 287 287 287 288 288
283 282 283 283 283 283 283 283 283 283 283 285 285 285 286 286 286 285 285 287 286 287
281 281 281 281 281 282 281 282 282 281 281 283 284 285 284 285 284 285 284 284 284 285
280 279 279 280 280 280 280 280 280 280 280 281 283 283 283 283 284 283 283 282 283 283
279 279 279 279 278 278 279 278 278 279 279 280 282 282 282 281 283 283 282 281 283 283
278 277 277 276 277 278 278 278 278 278 278 279 279 281 281 280 281 281 281 281 281 282
279 277 276 277 278 279 278 277 278 277 277 277 278 279 280 279 279 277 279 279 280 280
279 278 277 278 278 278 277 276 275 275 276 276 277 278 279 278 277 276 276 277 277 279

GFSNIL_sfc_thetae_126.txt.gz
Theta_e
293 293 292 292 291 291 291 292 293 294 294 295 296 297 297 298 300 303 303 303 303 308
291 291 290 291 291 290 291 291 292 292 292 293 294 294 295 295 297 298 300 302 302 303
290 290 291 291 290 290 290 290 290 290 291 291 292 292 293 293 295 295 296 298 300 301
290 290 290 289 289 289 290 289 289 289 289 289 290 291 291 291 291 291 292 293 294 297
289 289 289 289 288 289 288 289 288 289 289 289 289 289 289 288 289 288 288 288 290 289
289 289 288 288 288 288 289 288 287 288 287 288 288 288 289 288 288 288 288 288 288 287
288 288 287 288 288 288 288 287 287 287 287 288 287 286 287 288 288 288 287 288 287 287
287 287 287 286 287 287 287 287 287 287 288 288 286 285 285 288 288 287 286 287 287 287
285 285 285 285 286 286 286 285 285 285 286 286 284 282 283 285 286 285 284 284 285 286
284 283 283 283 283 284 284 284 282 283 284 283 284 282 282 283 284 284 283 283 283 283
282 282 282 282 281 282 282 281 281 280 281 282 282 280 281 282 284 284 283 282 282 282
281 280 280 280 280 281 281 281 280 280 279 279 280 280 279 281 284 283 282 282 282 281
281 279 279 280 280 280 281 280 281 280 279 278 278 278 278 279 280 280 281 281 281 278
281 280 280 281 281 280 280 280 279 280 280 279 278 278 278 277 277 278 278 278 278 278

GFSNIL_sfc_thetae_129.txt.gz
Theta_e
295 294 294 293 293 292 292 292 293 293 294 294 295 296 296 297 298 299 299 300 302 303
293 293 292 293 293 292 292 292 292 293 292 293 294 294 294 295 295 295 296 296 298 299
292 292 292 292 290 291 291 291 291 291 291 292 293 292 293 292 292 292 292 292 293 295
292 292 292 291 290 291 290 290 290 290 291 291 291 292 291 290 290 289 289 290 290 289
292 292 291 290 290 291 290 289 289 290 290 290 289 290 290 289 289 288 287 287 287 287
292 292 291 291 291 290 290 290 289 290 289 288 288 288 290 290 290 289 288 288 287 286
290 290 289 290 290 290 289 289 289 290 289 289 287 285 287 289 288 288 288 288 288 287
289 289 289 289 289 289 288 288 288 288 288 287 285 284 284 288 287 287 286 286 286 287
288 287 287 287 287 287 286 286 286 286 285 284 283 282 284 286 285 284 284 283 284 285
286 285 285 285 285 284 284 284 283 283 284 282 281 280 282 284 285 284 283 282 281 282
284 283 284 283 282 283 283 282 281 281 281 282 280 280 280 283 285 284 283 282 280 280
282 281 282 281 281 282 282 282 281 281 280 279 279 279 279 281 284 283 282 282 280 278
282 281 281 281 281 282 283 282 283 281 281 280 279 279 279 279 279 280 280 280 280 277
283 282 282 282 282 282 282 282 282 282 282 281 280 279 278 278 277 278 278 277 277 278

GFSNIL_sfc_thetae_132.txt.gz
Theta_e
293 292 293 292 292 291 291 291 292 293 293 293 294 294 295 295 295 294 295 294 294 295
293 292 291 292 291 291 291 291 291 292 292 293 293 293 293 292 291 292 291 291 292 291
292 292 292 291 290 291 290 290 290 290 291 291 291 292 291 291 291 290 290 290 289 289
292 292 291 290 290 290 290 290 290 291 290 289 289 290 291 290 290 289 289 289 288 287
292 292 291 291 290 291 290 290 290 290 289 287 286 287 288 289 290 289 288 288 287 286
291 290 289 289 290 289 289 289 289 288 287 285 285 285 286 289 288 288 287 287 286 284
289 289 289 289 288 288 288 287 287 286 284 283 283 284 285 287 286 286 285 286 286 284
288 288 288 287 287 287 286 285 286 285 283 282 281 282 283 285 284 283 282 282 283 282
287 286 285 285 285 284 283 283 282 283 281 279 280 282 284 285 283 282 280 277 279 280
285 284 283 284 283 282 281 281 280 280 281 278 279 281 282 284 282 281 279 276 276 277
284 283 282 282 281 281 281 280 279 278 278 278 279 280 280 282 281 281 279 277 275 275
282 281 280 278 279 281 281 280 278 278 277 276 276 280 279 278 278 277 277 277 276 275
281 279 276 279 278 281 281 280 281 278 277 278 275 279 279 276 275 275 275 274 274 278
282 282 281 281 281 280 280 279 281 280 277 275 275 275 279 278 274 274 274 273 273 274

GFSNIL_sfc_thetae_135.txt.gz
Theta_e
292 291 291 290 291 290 290 290 291 291 292 292 293 293 293 292 292 292 292 291 291 291
292 291 290 290 291 290 290 290 290 291 290 290 291 292 292 291 290 290 290 289 289 289
291 291 291 290 290 290 290 290 291 289 288 287 288 289 291 290 290 289 289 288 287 287
291 291 290 289 289 289 288 288 289 286 285 285 286 287 289 289 289 288 288 286 285 285
289 288 287 287 286 286 286 287 286 285 282 283 284 285 287 287 287 285 285 285 283 282
286 286 285 285 285 285 285 285 284 283 282 281 283 284 285 285 284 283 283 284 280 280
285 285 285 285 284 284 284 283 282 281 280 281 282 283 284 284 282 280 280 280 280 279
285 285 284 283 283 282 281 281 282 279 279 279 281 284 283 283 281 278 277 278 278 278
284 283 282 282 281 280 280 279 280 278 278 278 280 283 284 282 280 278 276 275 276 277
282 281 281 281 280 279 278 278 277 277 277 277 278 282 282 282 279 278 277 276 275 276
282 280 280 279 277 276 277 273 273 275 275 275 278 280 280 280 277 276 275 275 276 275
280 278 277 271 271 273 277 274 274 274 273 273 273 279 278 276 275 273 272 275 275 275
279 275 269 269 271 273 274 277 276 274 272 276 271 279 279 274 273 272 272 273 274 278
279 278 276 275 273 272 273 278 275 272 271 270 273 272 278 278 269 271 273 273 272 273

GFSNIL_sfc_thetae_138.txt.gz
Theta_e
289 289 287 290 289 287 289 289 290 290 290 290 290 292 292 291 291 291 290 288 288 289
291 290 289 290 290 288 288 289 288 288 287 288 289 290 291 290 290 290 288 287 287 287
291 290 290 289 288 286 287 287 285 286 286 286 287 288 290 288 288 288 285 286 284 285
289 287 287 286 286 286 285 285 282 282 283 283 285 286 286 286 285 285 283 282 282 282
286 286 285 284 284 284 283 283 282 281 281 283 284 284 284 282 282 281 281 279 280 280
285 284 283 283 283 283 282 280 280 280 280 281 283 283 283 280 279 279 279 279 279 279
284 284 283 282 281 281 281 279 278 279 279 281 283 283 282 279 277 278 277 278 279 279
283 283 282 281 280 280 280 278 278 278 279 281 283 282 280 278 277 276 276 277 278 279
283 282 281 280 279 279 278 278 277 277 278 279 281 283 281 279 277 276 276 276 277 278
282 281 280 280 279 277 275 275 275 276 277 277 280 281 280 278 276 275 275 275 275 277
280 280 279 278 276 275 273 268 268 272 273 276 278 280 278 277 275 274 274 274 275 274
280 278 278 273 272 272 273 269 267 269 272 272 273 278 278 276 273 271 271 274 275 275
279 275 272 269 273 272 270 268 271 269 268 275 269 279 278 273 270 269 270 271 272 278
279 278 276 273 271 276 273 268 266 266 266 267 271 273 278 278 266 266 270 271 270 273

GFSNIL_sfc_thetae_141.txt.gz
Theta_e
287 286 287 287 285 286 286 286 286 285 286 288 290 292 291 291 290 288 287 286 287 288
287 287 287 287 286 285 286 287 284 284 284 285 287 290 288 288 288 284 286 284 284 285
287 287 287 287 285 284 283 282 282 282 283 284 285 287 286 285 285 282 281 282 281 282
286 286 285 284 284 283 282 282 281 281 282 283 284 284 282 282 281 281 279 280 280 281
286 285 283 283 282 281 279 280 280 280 281 282 283 281 279 279 279 278 277 278 279 279
284 283 282 281 281 280 279 278 279 279 280 282 282 279 278 278 278 278 278 279 278 278
282 282 281 281 280 279 278 278 278 279 281 283 281 279 278 277 277 277 278 279 279 278
282 282 281 280 280 280 278 278 278 278 281 283 281 279 277 277 277 276 277 278 278 278
281 281 280 279 278 278 277 277 277 277 280 281 281 280 279 277 276 276 276 276 277 276
281 280 279 278 277 275 274 274 274 274 277 279 279 279 278 278 275 275 275 275 276 275
280 279 278 276 274 272 271 265 265 270 272 277 278 278 278 277 274 273 274 274 275 275
280 278 277 273 270 268 270 267 264 263 268 269 271 278 277 275 272 270 270 274 275 275
279 276 272 271 270 265 264 263 268 266 264 274 269 278 277 272 270 269 270 270 271 278
278 276 274 274 272 267 264 264 262 264 263 266 271 273 278 277 267 266 270 270 269 271

GFSNIL_sfc_thetae_144.txt.gz
Theta_e
286 286 286 285 285 285 285 283 284 284 285 288 290 289 289 289 286 285 284 284 285 286
287 287 286 285 284 283 282 284 282 283 283 285 287 287 287 286 282 282 283 282 282 283
287 286 285 285 283 281 281 281 281 282 282 284 284 284 283 282 283 280 280 281 281 282
285 284 284 283 281 280 280 280 280 281 282 282 281 280 280 280 280 279 279 279 279 280
284 283 282 281 280 279 279 280 280 281 282 282 279 278 279 278 278 278 278 278 279 279
283 282 281 280 279 279 278 279 279 280 281 281 279 278 278 278 278 278 279 278 278 279
282 281 280 280 279 279 278 278 278 280 283 280 278 278 278 277 277 277 278 278 278 278
281 281 280 280 279 279 279 278 278 280 282 281 279 278 277 277 277 277 277 277 277 277
281 280 280 279 279 278 277 277 277 280 280 279 278 280 279 277 276 276 276 276 275 275
281 279 279 278 277 276 274 275 274 275 278 277 277 279 279 278 276 275 275 275 274 274
280 278 277 276 274 272 270 265 265 268 272 276 277 279 278 277 274 273 274 274 274 273
279 277 276 272 270 270 270 266 262 262 267 270 273 278 277 275 272 271 271 274 275 274
279 276 272 270 269 263 263 263 268 266 263 274 266 278 277 272 272 270 271 271 272 277
278 275 273 271 269 264 263 263 261 263 261 265 271 274 277 275 269 269 270 269 269 271

GFSNIL_sfc_thetae_147.txt.gz
Theta_e
294 293 293 293 292 290 289 290 291 292 293 292 293 293 291 290 290 290 289 288 288 288
293 292 292 292 292 289 289 289 290 291 291 291 290 290 290 288 287 288 288 287 287 286
292 292 291 290 288 287 288 289 289 289 289 288 288 288 287 286 285 285 286 286 286 286
290 290 289 288 287 286 287 287 288 288 286 285 285 285 285 284 284 283 283 284 284 284
289 288 287 286 286 286 285 286 287 287 285 283 282 283 283 282 283 283 281 282 283 283
287 287 285 284 284 284 285 286 286 286 284 282 282 282 282 282 282 282 281 282 282 282
287 286 285 284 283 283 284 285 285 285 283 282 282 281 281 281 281 282 281 281 281 281
286 286 284 283 282 283 283 284 285 284 283 283 282 280 281 281 280 281 279 279 279 280
285 284 283 282 281 281 282 283 283 283 282 281 281 280 279 280 280 279 279 277 278 278
283 283 282 281 280 280 280 282 282 281 281 280 281 279 279 278 280 279 278 277 277 276
282 281 281 280 278 278 279 279 280 280 280 280 280 279 278 278 279 279 278 277 276 276
282 280 279 276 276 277 277 277 277 279 278 278 278 278 278 278 278 277 277 278 277 276
281 278 275 275 275 276 277 276 278 277 277 278 278 278 277 278 278 276 276 277 277 276
280 277 276 275 275 275 275 275 275 275 276 276 278 278 277 276 277 276 275 275 275 276

GFSNIL_sfc_thetae_150.txt.gz
Theta_e
303 302 301 300 299 297 298 297 298 299 299 298 298 298 297 297 297 297 297 295 294 293
301 300 299 299 298 296 296 296 297 297 297 296 295 295 295 294 293 294 294 294 293 292
299 299 299 297 295 295 294 295 296 296 295 294 293 293 292 291 291 291 291 291 291 291
298 298 296 294 293 292 293 294 294 293 292 291 290 291 290 290 289 289 289 290 289 289
297 296 293 292 291 291 292 293 293 291 290 289 288 289 288 287 288 287 287 287 288 287
293 292 290 290 289 291 291 291 291 290 288 288 287 286 287 287 287 286 286 287 286 286
291 289 289 288 288 290 291 291 290 289 287 286 286 286 286 286 287 285 285 285 285 284
290 290 288 288 288 288 290 290 289 288 287 287 285 285 285 286 286 285 284 283 283 282
288 287 287 287 286 287 288 288 288 286 286 285 283 280 281 285 285 284 283 282 282 281
287 286 286 285 284 284 286 287 286 285 285 284 282 280 280 282 284 283 282 281 281 279
286 284 283 283 282 284 285 285 283 283 284 283 281 280 280 281 283 282 281 281 280 279
284 283 282 281 281 283 283 283 282 283 283 281 280 279 280 282 282 280 280 280 279 278
284 282 280 280 280 282 283 282 283 281 282 280 280 279 279 281 282 280 280 280 278 275
282 280 280 280 281 281 281 281 281 280 281 280 280 279 277 278 282 281 280 280 279 277

GFSNIL_sfc_thetae_156.txt.gz
Theta_e
312 307 305 304 304 302 302 301 302 301 300 299 299 298 297 296 296 296 295 293 294 293
311 306 305 305 304 302 302 301 300 299 298 298 298 296 295 294 294 294 294 293 292 291
306 306 305 303 301 300 300 300 299 298 296 296 296 295 294 292 293 292 292 291 290 290
303 303 302 300 299 298 298 298 296 295 295 294 293 293 292 291 291 291 289 289 288 289
302 301 299 298 297 297 296 296 294 293 292 292 292 291 291 290 290 289 288 288 287 287
300 299 297 295 294 294 294 293 292 291 290 290 290 290 290 289 289 288 288 286 285 284
299 296 293 293 292 292 292 291 290 290 289 289 289 289 289 288 287 286 285 283 281 280
295 293 291 291 291 291 290 290 289 288 288 288 288 286 288 287 286 284 283 280 279 279
291 291 289 289 289 289 288 287 287 286 286 286 283 284 286 287 285 284 281 279 278 278
289 287 287 288 288 287 286 286 285 285 283 281 281 285 287 287 284 283 282 280 278 278
286 285 285 285 285 285 285 284 284 283 281 281 282 284 286 285 282 281 280 280 278 277
285 284 284 284 284 285 284 284 284 283 281 280 281 284 284 283 281 278 277 278 277 275
285 284 283 284 284 284 283 283 283 281 280 280 280 282 284 282 279 276 275 274 274 276
284 283 283 284 283 283 282 282 281 280 280 279 279 279 280 282 281 278 277 275 272 271

GFSNIL_sfc_thetae_159.txt.gz
Theta_e
306 301 301 300 300 299 298 298 298 297 297 296 296 296 295 295 294 292 291 292 291 289
306 303 301 301 300 300 299 299 297 296 295 295 294 294 293 292 292 292 291 290 290 289
305 303 303 302 298 299 299 299 296 295 295 295 293 292 292 291 290 291 290 290 289 289
301 302 300 299 298 297 297 297 296 295 294 293 293 292 291 290 290 289 289 289 289 288
299 300 297 296 296 295 295 295 294 294 293 293 291 291 290 290 290 289 288 287 286 285
298 297 294 294 294 294 293 291 291 291 291 291 291 290 289 289 288 286 284 283 281 281
298 295 292 292 292 292 291 289 289 289 290 290 289 289 289 288 285 283 282 281 280 279
295 293 291 291 291 291 289 288 288 288 288 288 288 287 287 287 284 281 279 279 279 280
292 291 290 290 289 289 287 285 286 286 286 283 285 285 288 286 283 281 279 278 278 279
290 288 288 289 287 285 285 285 285 283 282 281 283 285 288 286 283 280 279 278 278 278
287 286 286 285 285 285 285 285 284 282 281 281 284 286 285 283 281 279 278 278 277 276
286 285 285 285 285 285 284 284 281 281 280 281 282 284 283 281 278 276 276 276 276 275
285 285 285 284 284 284 284 283 281 280 280 281 281 284 283 280 277 275 274 275 275 277
285 284 284 283 283 282 281 280 279 278 279 279 279 281 283 281 277 274 274 273 273 273